Regional Weather Roundup
Issued by NWS

Home | Current Version | Previous Version | Graphics & Text | Print | Product List | Glossary Off
Versions: 1 2 3 4 5 6 7 8 9 10 11 12 13 14 15 16 17 18 19 20 21 22 23 24 25 26 27 28 29 30 31 32 33 34 35 36 37 38 39 40 41 42 43 44 45 46 47 48 49 50

049
ASUS43 KTOP 161959
RWRKS

WEATHER ROUNDUP FOR KANSAS
NATIONAL WEATHER SERVICE GOODLAND KS
200 PM CST SAT DEC 16 2017

NOTE:  "FAIR" INDICATES FEW OR NO CLOUDS BELOW 12,000 FEET WITH NO
SIGNIFICANT WEATHER AND/OR OBSTRUCTIONS TO VISIBILITY.

KSZ001>006-013>018-027>032-041>047-162100-
NORTHWEST KANSAS

CITY           SKY/WX    TMP DP  RH WIND       PRES   REMARKS
GOODLAND       SUNNY     53  17  24 NE17G28   29.73F
HAYS           SUNNY     56  24  29 S12       29.74
HILL CITY      SUNNY     55  17  22 E12       29.74F
RUSSELL        SUNNY     58  26  29 S13       29.74F
$$

KSZ061>065-074>080-084>089-162100-
SOUTHWEST KANSAS

CITY           SKY/WX    TMP DP  RH WIND       PRES   REMARKS
DODGE CITY     SUNNY     61  19  19 S21G32    29.72F
GARDEN CITY    SUNNY     58  19  22 S15       29.70F
GREAT BEND     SUNNY     60  24  25 S20G26    29.75F
LIBERAL        SUNNY     61  17  18 S26G35    29.71F
$$

KSZ066>073-081>083-090>101-162100-
SOUTHEAST KANSAS

CITY           SKY/WX    TMP DP  RH WIND       PRES   REMARKS
CHANUTE        SUNNY     59  26  28 S18G28    29.90F
COFFEYVILLE    SUNNY     59  26  28 S21G26    29.93F
HUTCHINSON     SUNNY     59  26  28 S20       29.79F
MEDICINE LODGE   N/A     58  25  28 S16G29    29.78F
NEWTON         SUNNY     57  27  31 S23       29.82F
PARSONS        SUNNY     60  26  27 S15G21    29.92F
WICHITA INTL   SUNNY     60  28  29 S23       29.82F
WICHITA JABRA  SUNNY     58  26  29 S21G31    29.82F
WICHITA MCCONL SUNNY     60  25  26 SW22G29   29.82F
WINFIELD       SUNNY     60  25  26 S21G31    29.88F
$$

KSZ007>012-019>026-033>040-048>060-102>105-162100-
NORTHEAST KANSAS

CITY           SKY/WX    TMP DP  RH WIND       PRES   REMARKS
CONCORDIA      SUNNY     53  25  33 E6        29.78F
EMPORIA        SUNNY     60  27  28 S18       29.84F
LAWRENCE       SUNNY     61  28  28 S9        29.85F
MANHATTAN      SUNNY     62  27  26 SW9       29.80F
OLATHE IND     SUNNY     58  28  32 S18       29.87F
OLATHE EXE     SUNNY     58  28  32 S15G22    29.87F
SALINA         SUNNY     61  27  27 S16G22    29.78F
TOPEKA BILLARD SUNNY     59  29  31 S10       29.84F
TOPEKA FORBES  SUNNY     60  28  29 S17       29.84F
$$




USA.gov is the U.S. government's official web portal to all federal, state and local government web resources and services.